Location: Byhalia Creek
(34.8270°N, 89.8040°W)
Time: 08:46:03
(UTC+00:00)

Cosmos 2315 Rocket - Pass Details

Date: 22 April 2026
Orbit: 965 x 1001 km, 82.9° (Epoch: 15 May)

Event Time Altitude Azimuth Distance (km) Brightness Sun altitude
Rises 10:06:44 0° 179° (S) 3,693 6.8 -14.6°
Reaches altitude 10° 10:09:15 10° 177° (S) 2,751 6.1 -14.1°
Maximum altitude 10:15:33 73° 94° (E) 1,043 4.3 -13.0°
Drops below altitude 10° 10:21:54 10° 11° (N) 2,777 6.9 -11.8°
Sets 10:24:27 0° 9° (N) 3,730 7.5 -11.3°
